Tracking 29892 objects as of 21-Nov-2024
HD Live streaming from Space Station
objects crossing your sky now

STARLINK-31966

Track STARLINK-31966 now!
10-day predictions
STARLINK-31966 is classified as:


NORAD ID: 59944
Int'l Code: 2024-106Y
Perigee: 450.4 km
Apogee: 452.1 km
Inclination: 43.0 °
Period: 93.5 minutes
Semi major axis: 6822 km
RCS: Unknown
Launch date: June 1, 2024
Source: United States (US)
Launch site: AIR FORCE EASTERN TEST RANGE (AFETR)
Your satellite tracking list
Your tracking list is empty




NASA's NSSDC Master Catalog

Two Line Element Set (TLE):
1 59944U 24106Y   24325.92266835 -.00003607  00000-0 -79218-4 0  9990
2 59944  42.9966 141.3160 0001268 275.6051  84.4661 15.40668854 27968
Source of the keplerian elements: AFSPC